Showing default

NAHUEL I2 (ANIK C2), 14133

Orbit data source: Space-Track

NAHUEL I2 (ANIK C2), 14133 is a payload satellite owned by Telesat (AR) in GEO that was launched on Sat, 18 Jun 1983 UTC via an SPACE SHUTTLE launch vehicle from the Air Force Eastern Test Range (AFETR). Payload-class satellites include a variety of spacecraft equipped with specific instruments for various scientific and technological missions. These include communications satellites like Starlink; space stations such as the ISS; scientific satellites like the Hubble; Earth observation satellites from companies like Planet Labs, Umbra, and HawkEye 360; GPS; miniature CubeSats for education and research; and military/defense satellites.

Loading next visibility...
Identifier
14133, 1983-059B
Orbit
GEO
Country
Flag of ARAR / ARGN
Related business
Manufacturer
Hughes
Mission
Non-operational spacecraft
Bus & Motor
HS-376, TE-M-700-5
Mass
1,118 kg wet, 444 kg dry
Launch date (UTC)
1983-06-18 (43 years ago)
Launch vehicle
SPACE SHUTTLE
Launch site
Air Force Eastern Test Range (AFETR)
Object type
Payload
Rocket body
Debris
Shape & HBR
Unknown
Radar Cross Section
Large (>1 m²)

Expand to show TLE details & history
Last TLE update: 19 hours ago

TLE from 19 hours ago
0 NAHUEL I2 (ANIK C2)
1 14133U 83059B   26119.50382978 -.00000198  00000-0  00000+0 0  9996
2 14133  12.9554 336.5696 0036432 117.9389 242.3548  0.99122893 45666
Epoch: 2026-04-29T12:05Z
TLE epoch observation values (Epoch: 2026-04-29T12:05:30.892Z)
Latitude
Longitude
-62.33548°
Altitude
36,182.642 km
Speed
3.058 km/s
True Right ascension
22h 26m 01s
True Declination
0° 00' 00"
Sunlit
Object was in daylight at epoch
Visualization orbit readout
Latitude
Unknown
Longitude
Unknown
Altitude
Unknown
Speed
Unknown
Apparent Right ascension
Unknown
Apparent Declination
Unknown
Sunlit
N/A
Visualization observer readout
Local Sidereal Time
14:42:41
Azimuth
Unknown
Elevation
Unknown
Doppler factor
Unknown
Orbital elements
Apogee altitude
36,267.565 km
Perigee altitude
35,957.96 km
Semi-major axis
42,490.899 km
Eccentricity
0.00364
Inclination
12.9554°
RAAN
336.5696°
Arg. of periapsis
117.9389°
True anomaly
241.98576°
Mean anomaly
242.3548°
Eccentric anomaly
242.1702°
Mean motion
0.2478 °/min
Orbital period
1,452.79 mins
BSTAR
0
Loading maneuver chart data...
Computing Atmospheric mass density...
Loading historical data...
Loading historical data...
Loading historical data...
Loading historical data...
Loading historical data...
Loading historical data...
Loading historical data...

Documentation

Showing up to 5 results
|